Home   Weather   Suzuka   Past weeks

Flag for Japan Past Weather in Suzuka, Japan — Yesterday and Last 2 Weeks

Now
51 °F

Cool.


Feels Like: 47 °F
Forecast: 40 / 52 °F
Wind: 12 mph from West

Location: Tsu

Current Time: Dec 9, 2016 at 10:45:27 pm

Latest Report: Dec 9, 2016 at 10:00 pm


Visibility: N/A

Pressure: 29.96 "Hg

Humidity: 50%

Dew Point: 33 °F

Location of SuzukaLocation

Past Weather in Suzuka — Graph

°F

Suzuka Temperature Yesterday

Maximum temperature yesterday: 56 °F (at 2:00 pm)
Minimum temperature yesterday: 44 °F (at 11:00 pm)
Average temperature yesterday: 50 °F

High & Low Weather Summary for the Past Weeks

 TemperatureHumidityPressure
High64 °F (Dec 5, 1:00 pm)90% (Nov 27, 3:00 pm)30.48 "Hg (Nov 27, 3:00 pm)
Low41 °F (Nov 25, 6:00 am)34% (Dec 7, 2:00 pm)29.85 "Hg (Dec 9, 3:00 pm)
Average52 °F64%30.15 "Hg
* Reported Nov 24 8:00 pm — Dec 9 8:00 pm, Suzuka, Weather by CustomWeather, © 2016

Note: Actual official high and low records may vary slightly from our data, if they occured in-between our weather recording intervals... More about our weather records

Advertising

Suzuka Weather History for the Previous 24 Hours

Scroll right to see more
 ConditionsComfort  
Time TempWeatherWind HumidityBarometerVisibility
8:00 pm
Fri, Dec 9
53 °FCool.8 mph62%29.94 "HgN/A
7:00 pm53 °FCool.5 mph62%29.92 "HgN/A
6:00 pm54 °FCool.8 mph55%29.90 "HgN/A
5:00 pm57 °FRefreshingly cool.5 mph56%29.88 "HgN/A
4:00 pm59 °FRefreshingly cool.10 mph48%29.85 "HgN/A
3:00 pm61 °FPassing clouds.14 mph43%29.85 "Hg12 mi
2:00 pm54 °FCool.3 mph59%29.87 "HgN/A
1:00 pm53 °FCool.6 mph60%29.89 "HgN/A
12:00 pm52 °FCool.6 mph62%29.92 "HgN/A
11:00 am51 °FCool.5 mph64%29.95 "HgN/A
10:00 am49 °FCool.3 mph64%29.97 "HgN/A
9:00 am47 °FPassing clouds.3 mph67%30.00 "Hg12 mi
8:00 am45 °FQuite cool.3 mph73%30.01 "HgN/A
7:00 am43 °FQuite cool.5 mph78%30.02 "HgN/A
6:00 am43 °FQuite cool.6 mph76%30.01 "HgN/A
4:00 am44 °FQuite cool.5 mph72%30.04 "HgN/A
3:00 am42 °FQuite cool.5 mph75%30.06 "HgN/A
2:00 am42 °FQuite cool.5 mph74%30.07 "HgN/A
1:00 am43 °FQuite cool.3 mph71%30.06 "HgN/A
12:00 am43 °FQuite cool.7 mph72%30.08 "HgN/A
11:00 pm
Thu, Dec 8
44 °FQuite cool.5 mph71%30.08 "HgN/A
10:00 pm44 °FQuite cool.1 mph71%30.09 "HgN/A
Weather by CustomWeather, © 2016

See weather overviewHow to use our weather pages